Regional Weather Roundup
Issued by NWS Newport/Morehead, NC

Current Version | Previous Version | Graphics & Text | Print | Product List | Glossary Off
Versions: 1 2 3 4 5 6 7 8 9 10 11 12 13 14 15 16 17 18 19 20 21 22 23 24 25 26 27 28 29 30 31 32 33 34 35 36 37 38 39 40 41 42 43 44 45 46 47 48 49 50
000 ASUS42 KMHX 290725 RWRMHX WEATHER ROUNDUP FOR EASTERN NORTH CAROLINA NATIONAL WEATHER SERVICE NEWPORT/MOREHEAD CITY NC 300 AM EDT FRI MAY 29 2015 NOTE: "FAIR" INDICATES FEW OR NO CLOUDS BELOW 12,000 FEET WITH NO SIGNIFICANT WEATHER AND/OR OBSTRUCTIONS TO VISIBILITY NCZ015>017-031-032-045>047-102-103-290800- NORTH COAST CITY SKY/WX TMP DP RH WIND PRES REMARKS EDENTON CLEAR 69 64 85 S5 30.22S ELIZABETH CITY CLEAR 69 63 81 S5 30.22F KITTY HAWK N/A 69 64 82 CALM 30.22S MANTEO CLEAR 64 61 92 CALM 30.23S $$ NCZ045>047-081-094-103-104-290800- CENTRAL COAST CITY SKY/WX TMP DP RH WIND PRES REMARKS FRISCO CLEAR 66 61 84 CALM 30.22F SWANQUARTER N/A 64 N/A N/A N2 30.18S $$ NCZ095-097-098-100-101-290800- SOUTHERN COAST CITY SKY/WX TMP DP RH WIND PRES REMARKS BEAUFORT CLEAR 64 62 93 CALM 30.21F CEDAR ISLAND N/A 66 N/A N/A S1 30.24S JACKSONVILLE CLEAR 63 61 93 CALM 30.21S PINEY ISLAND SUNNY N/A N/A N/A CALM 30.21F WILMINGTON CLEAR 63 61 93 CALM 30.20F $$ NCZ011>013-027>030-043-044-078>080-089-090>093-098-290800- COASTAL PLAIN CITY SKY/WX TMP DP RH WIND PRES REMARKS AHOSKIE PTCLDY 67 63 85 CALM 30.22S CLINTON PTCLDY 66 64 94 CALM 30.21F ELIZABETHTOWN CLEAR 64 64 97 CALM 30.20F GOLDSBORO MOCLDY 68 64 86 CALM 30.19F GREENVILLE PTCLDY 68 63 83 CALM 30.22F HAVELOCK CLEAR 63 59 87 CALM 30.22F KENANSVILLE MOCLDY 63 62 95 CALM 30.23F KINSTON MOCLDY 67 64 88 CALM 30.22F NEW BERN CLEAR 62 59 90 CALM 30.23F RICHLANDS CLEAR 61 55 82 CALM 30.21F ROCKY MOUNT CLOUDY 70 65 84 S3 30.21F WASHINGTON CLEAR 65 62 89 CALM 30.22F WHITEVILLE CLEAR 63 60 92 CALM 30.19F $$ AMZ130-135-150-152-154-156-158-170-250-252-270-ANZ085-086-088-633-658-670-290800- MARINE OBSERVATIONS STATION/POSITION TIME TEMP WIND PRES WAVE SWELL AIR SEA DIR/SP/G HT/PER HT/PER (UTC) (F) (DEG/KT/KT) (MB) (FT/S) (FT/S) CHESAPEAKE LIGHT 0700 70 200/ 14/ 14 1023.9 64 E VA BEACH 0650 67 65 100/ 2/ 4 1023.3 3/ 8 3/ 8 DUCK 0700 55 N/A 2 E DUCK 0611 60 N/A 3/ 8 OREGON INLET 0700 78 N/A 13E OREGON INLT 0700 74 N/A 3/ 8 HATTERAS CG 0600 74 76 170/ 3/ 4 1023.1 DIAMOND BUOY 0650 75 77 150/ 4/ 4 1023.0 4/ 9 5/ 9 CAPE LOOKOUT 0700 72 CALM 1022.8 BEAUFORT LAB 0600 71 76 110/ 1/ 2 1022.5 27 SE WRIGHTSVLE 0700 76 20/ 2/ 2 N/A 5 SE WRIGHTSVLE 0608 75 77 160/ 4/ 6 1023.0 225 S CAPE HAT 0650 74 74 70/ 12/ 14 1021.3 6/ 9 5/ 9 41 SE CHARLESTON 0650 76 79 100/ 8/ 10 1021.1 4/ 8 3/ 8 $$

USA.gov is the U.S. government's official web portal to all federal, state and local government web resources and services.